{"data":{"norad_id":64003,"epoch":"2026-09-20T21:28:23.204064Z","epoch_age_seconds":109438,"freshness":"FRESH","line1":"1 64003U 25101K   26263.89471301  .00011277  00000+0  41866-3 0  9999","line2":"2 64003  43.0013 335.1763 0001786 277.0493  83.0156 15.27582637 76910","mean_motion":15.27582637,"eccentricity":0.0001786,"inclination_deg":43.0013,"raan_deg":335.1763,"arg_perigee_deg":277.0493,"mean_anomaly_deg":83.0156,"bstar":0.00041866,"rev_number":7691,"period_min":94.26658598503,"perigee_km":481.81579349785,"apogee_km":484.26660635086,"semimajor_km":6861.1781999244,"source":"CELESTRAK","updated_at":"2026-09-21T09:00:35.181547Z"}}